www.pogodaiklimat.ru

Погода и климат >> Архив погоды >> Канада >> Онтарио >> Сен-Пьер


ПОГОДА в Сен-Пьере

  • Прогноз погоды в Сен-Пьере
  • Монитор погоды в Сен-Пьере

АРХИВ ПОГОДЫ в Сен-Пьере

Время (UTC), дата Ветер
(напр.,м/с)
 
Видим.   Явления Облачность Т
(С)
Тd
(С)
f
(%)
Тe
(С)
Тes
(С)
Комфортность P
(гПа)
Po
(гПа)
Тmin
(С)
Tmax
(С)
R
(мм)
R24
(мм)
S
(см)
09 11.02 З 20-29
{31}
12 км 9/9 540 м
[Cu Sc]
-8.2 -11.2 79 -21 -21 999.4 998.5 0.0
12 11.02 З 18-29
{30}
6000 м 8/8 600 м
[Cu Sc]
-7.6 -13.0 65 -20 -20 999.1 998.2 0.0 2
15 11.02 З 21-31
{31}
4000 м в посл. час ливневой снег 9/9 540 м
[Cu Sc]
-7.2 -12.7 65 -20 -20 998.2 997.3 0.0
18 11.02 З 14-24
{28}
1500 м слаб. ливневой снег 9/9 240 м
[Cu Sc]
-7.5 -8.9 90 -19 -19 998.2 997.3 -8.8 -6.5 0.0 2
21 11.02 З 14-23
{24}
8000 м позёмок {ливн. осадки, снег} 9/9 720 м
[Sc]
-7.5 -8.9 90 -19 -19 1000.1 999.2 0.2
00 12.02 СЗ 12-20
{22}
40 км 10/10 600 м
[]
-6.1 -9.6 76 -17 -17 1002.6 1001.7
03 12.02 СЗ 12-21
{22}
35 км 10/10 600 м
[]
-5.2 -9.8 70 -15 -15 1004.6 1003.7 0.0
06 12.02 СЗ 13-22
{23}
35 км н/о -5.2 -9.6 71 -16 -16 1006.0 1005.1 -7.9 -5.1
09 12.02 СЗ 12-19
{22}
35 км 10/10 600 м
[]
-5.4 -9.8 71 -16 -16 1007.8 1006.9
12 12.02 СЗ 14-21
{24}
35 км 9/9 600 м
[]
-5.7 -10.3 70 -17 -17 1009.9 1009.0 2
15 12.02 СЗ 13-22
{22}
15 км 6/6 700 м
[Sc]
-3.9 -10.1 62 -14 -14 1013.0 1012.1
18 12.02 СЗ 11-16
{21}
15 км 5/5 630 м
[Sc]
-3.2 -9.9 60 -12 -12 1014.9 1014.0 -6.3 -3.0 2
21 12.02 СЗ 13-21
{21}
20 км 4/4 700 м
[Sc]
-5.4 -9.8 71 -16 -16 1016.9 1016.0
00 13.02 СЗ 14-21
{22}
35 км н/о -5.7 -9.4 75 -17 -17 1019.8 1018.9
03 13.02 СЗ 7
{17}
40 км н/о -6.4 -9.9 76 -15 -15 1021.3 1020.4
06 13.02 СЗ 4
{12}
45 км н/о -6.4 -10.4 73 -12 -12 1022.5 1021.6 -6.6 -3.2
09 13.02 СЗ 4
{8}
50 км 1/1 700 м
[Sc]
-6.4 -10.3 74 -13 -13 1023.5 1022.6
12 13.02 С 4
{7}
50 км 9/3 700 м
[Sc Ci]
-5.5 -9.9 71 -11 -11 1024.2 1023.3 <0.5
15 13.02 СВ 2
{5}
45 км 9/0
[]
-3.9 -9.1 67 -7 -4 1023.0 1022.1
18 13.02 ЮВ 3
{6}
50 км 10/8 600 м
[Sc Ac As]
-4.1 -8.2 73 -9 -9 1019.5 1018.6 -6.6 -3.8 <0.5
21 13.02 ЮВ 7
{10}
50 км 10/10 600 м
[Sc]
-3.3 -6.8 77 -11 -11 1016.4 1015.5
00 14.02 В 11
{17}
500 м снег 10/10 150 м
[Frnb]
-3.9 -4.4 96 -14 -14 1012.0 1011.1 2 1
03 14.02 В 15-22
{24}
1200 м слаб. дождь со снегом 10/10 200 м
[]
-2.6 -2.9 98 -13 -13 1004.8 1003.9 2
06 14.02 ЮВ 17-25
{26}
2900 м слаб. переохл. морось (гололёд) 10/10 200 м
[]
-1.2 -1.3 99 -12 -12 997.9 997.0 -4.2 -1.2 0.2
09 14.02 Ю 12
{20}
1000 м в посл. час морось 10/10 90 м
[Frnb]
0.0 -0.1 99 -9 -9 994.5 993.6 0.2
12 14.02 ЮЗ 12
{16}
6000 м {морось} 10/10 210 м
[Sc]
+0.2 +0.1 99 -9 -9 993.1 992.2 0.0 10
15 14.02 З 17-24
{24}
12 км {ливн. осадки, снег} 9/9 600 м
[Sc]
-2.0 -2.7 95 -13 -13 994.6 993.7 0.0
18 14.02 З 14-21
{23}
16 км 10/10 600 м
[]
-2.4 -4.4 86 -13 -13 994.8 993.9 -2.6 +0.5
21 14.02 З 17-23
{24}
20 км 9/9 600 м
[Sc]
-2.1 -4.8 82 -13 -13 995.3 994.4
00 15.02 З 17-26
{26}
2000 м слаб. снег 10/10 300 м
[]
-2.3 -2.9 96 -13 -13 995.8 994.9 0.0
03 15.02 СЗ 10-16
{17}
6000 м 10/10 300 м
[]
-2.1 -2.8 95 -11 -11 999.0 998.1 0.4
06 15.02 СЗ 8
{14}
40 км н/о -2.7 -4.7 86 -11 -11 1006.2 1005.3 -2.8 -1.6
09 15.02 СЗ 6
{13}
20 км 9/9 540 м
[Cu Sc]
-2.2 -5.0 81 -9 -9 1013.4 1012.5 0.0
12 15.02 С 7
{12}
20 км 5/5 700 м
[Cu Sc]
-2.2 -5.5 78 -10 -9 1019.0 1018.1 0.0 10
15 15.02 С 6
{10}
25 км 3/3 540 м
[Cu hum]
-0.9 -5.3 72 -7 -6 1023.6 1022.7
18 15.02 С 3
{7}
25 км 1/1 540 м
[Sc]
-1.3 -6.1 70 -6 -3 1025.2 1024.3 -3.0 -0.5 8
21 15.02 С 2
{4}
25 км 1/1 540 м
[Sc Ci fib]
-3.2 -6.7 77 -6 -6 1026.3 1025.4
00 16.02 ЮВ 3
{6}
23 км 9/9 300 м
[]
-3.1 -6.1 80 -8 -8 1026.8 1025.9
03 16.02 Ю 8
{11}
21 км 10/10 300 м
[]
-2.1 -4.9 81 -10 -10 1026.7 1025.8
06 16.02 Ю 8
{11}
28 км 10/10 300 м
[]
-1.6 -4.0 84 -9 -9 1025.9 1025.0 -4.8 -0.7
09 16.02 Ю 8
{13}
25 км 9/9 600 м
[Sc]
-1.0 -4.2 79 -9 -9 1024.1 1023.2
12 16.02 ЮВ 10
{15}
25 км 5/3 600 м
[Sc Ac trans Ci fib]
-0.4 -2.9 83 -9 -9 1021.7 1020.8 7
15 16.02 ЮВ 11
{16}
8000 м 10/10 180 м
[Sc]
+0.6 -0.4 93 -8 -8 1019.2 1018.3
18 16.02 ЮВ 13-19
{19}
10 км 9/5 180 м
[St Ci sp]
+1.3 0.0 91 -7 -7 1012.9 1012.0 -1.9 +1.3 6
21 16.02 ЮВ 14-19
{20}
2000 м дымка 10/10 90 м
[St]
+1.0 +0.6 97 -8 -8 1008.2 1007.3
00 17.02 ЮВ 15-22
{23}
2000 м дымка 10/10 50 м
[]
+1.6 +1.3 98 -8 -8 1001.4 1000.5 0.0
03 17.02 ЮЗ 12-18
{22}
1900 м дождь со снегом 10/10 100 м
[]
+2.8 +2.5 98 -5 -5 997.8 996.9 12
06 17.02 З 7
{13}
500 м туман ?/? +1.6 +1.3 98 -5 -5 996.0 995.1 +0.9 +3.0 1
09 17.02 З 11-19
{20}
20 км 9/9 300 м
[Sc]
-0.5 -0.9 97 -10 -10 998.4 997.5 0.0
12 17.02 З 10-16
{16}
20 км 3/3 480 м
[Sc]
+0.1 -2.3 84 -8 -8 1002.8 1001.9
15 17.02 З 14-21
{21}
19 км 9/9 300 м
[]
+0.3 -3.6 75 -9 -9 1004.8 1003.9 0.0
18 17.02 З 13-20
{20}
20 км 8/8 480 м
[Sc]
-0.6 -4.5 75 -10 -10 1004.9 1004.0 -1.0 +1.5 0.0
21 17.02 З 11
{20}
20 км 9/9 600 м
[Sc]
-2.5 -5.8 78 -12 -12 1007.0 1006.1
00 18.02 З 13-19
{20}
20 км 9/9 700 м
[Sc]
-4.2 -8.7 71 -14 -14 1008.5 1007.6
03 18.02 З 12-18
{21}
45 км 10/10 600 м
[]
-4.8 -9.8 68 -15 -15 1009.1 1008.2
06 18.02 З 10
{17}
15 км слаб. снег 10/10 600 м
[]
-5.0 -8.9 74 -14 -14 1009.7 1008.8 -5.1 -0.3 0.0

 

Местоположение метеостанции Сен-Пьер (Онтарио, Канада): широта 46.77 долгота -56.16 высота над уровнем моря 24 м.

В архиве по умолчанию представлена погода в Сен-Пьере за последнюю неделю. Архивные данные за месяц целиком и за предыдущие месяцы, начиная с января 2011 года, Вы можете получить, выбрав интересующий диапазон дат из раскрывающегося списка и нажав кнопку "Ввод!".


*Определитесь, кто Вы:
робот инопланетянин человек

Внимание! Время в таблицах - всемирное. Для получения местного времени необходимо прибавить поправку, которая равна -4 ч.

Смотрите также архив погоды в соседних городах и на ближайших метеорологических станциях:

Погода в Сейнт-Лоренс (Ньюфаундленд и Лабрадор, Канада) (62 км)
Погода на Острове Сагона (Ньюфаундленд и Лабрадор, Канада) (73 км)
Погода в Уинтерленде (Ньюфаундленд и Лабрадор, Канада) (76 км)
Погода в Берджео (Ньюфаундленд и Лабрадор, Канада) (145 км)
Погода в Аргентии (Ньюфаундленд и Лабрадор, Канада) (174 км)
Погода в Кейп-Рейсе (Ньюфаундленд и Лабрадор, Канада) (237 км)
Погода в Порт-Окс-Баски (Ньюфаундленд и Лабрадор, Канада) (243 км)
Погода в Баджере (Ньюфаундленд и Лабрадор, Канада) (245 км)
Погода в Терра Нова (Ньюфаундленд и Лабрадор, Канада) (258 км)
Погода в Авр-Сен-Пьере (Квебек, Канада) (259 км)

Пояснения к столбцам:

Ветер - указаны скорость ветра в м/с - средняя за 10 мин, порывы в срок и между сроками (в фигурных скобках) и направление, откуда дует ветер: С - северный, СВ - северо-восточный, В - восточный, ЮВ - юго-восточный, Ю - южный, ЮЗ - юго-западный, З - западный, СЗ - северо-западный.
Видимость - горизонтальная дальность видимости в метрах или километрах. При видимости от 1 до 10 км при отсутствии осадков обычно наблюдается дымка, при ухудшении видимости до 1 км и менее - туман. В сухую погоду видимость может ухудшаться дымом, пылью или мглою.
Явления - указаны атмосферные явления, наблюдавшиеся в срок или в последний час перед сроком; фигурными скобками обозначены явления, наблюдавшиеся между сроками (за 1-3 часа до срока); квадратными скобками обозначены град или гололедные отложения с указанием их диаметра в мм.
Облачность - указаны через наклонную черту общая и нижняя облачность в баллах и высота нижней границы облаков в метрах; квадратными скобками обозначены формы облаков: Ci - перистые, Cs - перисто-слоистые, Cc - перисто-кучевые, Ac - высококучевые, As - высокослоистые, Sc - слоисто-кучевые, Ns - слоисто-дождевые, Cu - кучевые, Cb - кучево-дождевые. Подробнее классификацию облаков см. в Атласе облаков (PDF).
T - Температура воздуха - температура, измеренная на высоте 2 м над землей.
Td - Температура точки росы - температура, при понижении до которой содержащийся в воздухе водяной пар достигнет насыщения.
f - Относительная влажность воздуха - влажноcть воздуха, измеренная на высоте 2 м над землей.
Te - Эффективная температура - температура, которую ощущает одетый по сезону человек в тени. Характеристика душности погоды. При расчете учитывается влияние влажности воздуха и скорости ветра на теплоощущения человека.
Tes - Эффективная температура на солнце - температура, которую ощущает человек, с поправкой на солнечный нагрев. Характеристика знойности погоды. Зависит от высоты солнца над горизонтом, облачности и скорости ветра. Ночью, в пасмурную погоду, а также при ветре 12 м/с и более поправка равна нулю.
P - Атмосферное давление - приведенное к уровню моря атмосферное давление.
Po - Атмосферное давление - измеренное на уровне метеостанции атмосферное давление.
Tmin - Минимальная температура - минимум температуры воздуха на высоте 2 м над землей.
Tmax - Максимальная температура - максимум температуры воздуха на высоте 2 м над землей.
R - Количество осадков - Количество выпавших осадков за период времени, мм. При наведении курсора мыши на число - период времени, за который выпало указанное количество осадков.
R24 - Количество осадков - Количество выпавших осадков за 24 часа, мм.
S - Снежный покров - Высота снежного покрова, см. При наведении курсора мыши на число - состояние снежного покрова и степень покрытия местности в баллах.